Regional Weather Roundup
Issued by NWS

Home | Current Version | Previous Version | Graphics & Text | Print | Product List | Glossary On
Versions: 1 2 3 4 5 6 7 8 9 10 11 12 13 14 15 16 17 18 19 20 21 22 23 24 25 26 27 28
000
ASUS45 KBOI 202010
RWRID

IDAHO REGIONAL WEATHER ROUNDUP
NATIONAL WEATHER SERVICE BOISE ID
100 PM MST FRI JAN 20 2017

NOTE: "FAIR" INDICATES FEW OR NO CLOUDS BELOW 12000 FEET
WITH NO SIGNIFICANT WEATHER AND/OR OBSTRUCTIONS TO VISIBILITY

IDZ012-014-202100-
SOUTHWEST IDAHO


CITY           SKY/WX    TMP DP  RH WIND       PRES   REMARKS
BOISE          CLOUDY    42  27  55 SE22G30   29.29F
CALDWELL       CLOUDY    39  30  70 SE16G23   29.31F WCI  30
MOUNTAIN HOME  PTSUNNY   37  31  78 E23       29.32F WCI  26
$$

IDZ016-017-202100-
SOUTHCENTRAL IDAHO


CITY           SKY/WX    TMP DP  RH WIND       PRES   REMARKS
BURLEY         CLOUDY    36  24  62 W3        29.41F
JEROME         CLOUDY    35  26  69 NE17      29.38F WCI  25
TWIN FALLS     PTSUNNY   36  23  59 SE18      29.37F WCI  26
$$

IDZ019>023-202100-
SOUTHEAST IDAHO


CITY           SKY/WX    TMP DP  RH WIND       PRES   REMARKS
IDAHO FALLS    MOSUNNY   26  25  96 NW7       29.47F WCI  18
POCATELLO      MOSUNNY   35  25  66 CALM      29.47F
REXBURG        SUNNY     32  27  81 E7        29.46F WCI  26
$$

IDZ006-010-011-018-031-032-202100-
CENTRAL IDAHO MOUNTAINS


CITY           SKY/WX    TMP DP  RH WIND       PRES   REMARKS
MCCALL         PTSUNNY   30  23  75 SE6       29.28F WCI  24
HAILEY         CLOUDY    30  25  80 E5        29.45F WCI  25
STANLEY          N/A     28  19  69 SE13G22   29.33F WCI  17
SALMON         SUNNY     27  19  74 SE5       29.42F WCI  21
CHALLIS        CLOUDY    16  15  96 CALM      29.42F FOG
$$

IDZ002-004-006-007-026-202100-
NORTHERN IDAHO


CITY           SKY/WX    TMP DP  RH WIND       PRES   REMARKS
LEWISTON       MOSUNNY   42  31  64 E15       29.28F
LOWELL           N/A     41  34  76 N3        29.36F
COEUR D`ALENE  SUNNY     38  33  82 N13       29.31F WCI  30
MULLAN PASS    HAZE      30  25  81 VRB3      29.27F VSB 1/4
$$




USA.gov is the U.S. government's official web portal to all federal, state and local government web resources and services.